User: anonymous   Login
Location: Vancouver
(49.2500°N, 123.1330°W)
Time: 06:22:34
(UTC-07:00)
Language:

Transit 2A Rocket - Orbit

View from above orbital plane
View from above orbital plane
View from above satellite
View from above satellite

Ground track
Ground track

The orbit data is extracted from the following two-line orbital elements,

1 00047U 60007C   14297.40985078  .00001482  00000-0  35950-3 0  3420
2 00047 066.6666 269.4968 0229000 010.2788 350.2880 14.41267036837707
Epoch (UTC): 24 October 2014 09:50:11
Eccentricity: 0.0229000
inclination: 66.6666°
perigee height: 591 km
apogee height: 917 km
right ascension of ascending node: 269.4968°
argument of perigee: 10.2788°
revolutions per day: 14.41267036
mean anomaly at epoch: 350.2880°
orbit number at epoch: 83770

The dashed part of the orbit path shows where the satellite is in the earth's shadow,  

DLR